Newton, KS

9:47 PM CDT on August 16, 2017 (GMT -0500)
Newton City County

Weather History for KEWK - January, 2014

Change the Weather History Date:

Thursday, January 23, 2014

  Actual Average Record
Temperature  
Mean Temperature 11 °F -  
Max Temperature 17 °F 38 °F 57 °F (2002)
Min Temperature 5 °F 21 °F -2 °F (2003)
Degree Days  
Heating Degree Days 54    
Moisture  
Dew Point -9 °F    
Average Humidity 44    
Maximum Humidity 52    
Minimum Humidity 30    
Precipitation  
Precipitation 0.00 in - - ()
Sea Level Pressure  
Sea Level Pressure 30.70 in    
Wind  
Wind Speed 16 mph (North)    
Max Wind Speed 23 mph    
Max Gust Speed 30 mph    
Visibility 10 miles    
Events      
Averages and records for this station are not official NWS values.
T = Trace of Precipitation, MM = Missing Value Source: NWS Daily Summary

Daily Weather History Graph

Daily Weather History Graph

Search for Another Location

Airport or City:

Trip Planner

Search our weather history database for the weather conditions in past years. The results will help you decide how hot, cold, wet, or windy it might be!

Date:

Astronomy

Jan. 23, 2014 Rise Set
Actual Time 7:40 AM CST 5:42 PM CST
Civil Twilight 7:11 AM CST 6:10 PM CST
Nautical Twilight 6:39 AM CST 6:42 PM CST
Astronomical Twilight 6:08 AM CST 7:13 PM CST
Moon 12:07 AM CST (1/23) 11:23 AM CST (1/23)
Length of Visible Light 10h 58m
Length of Day
10h 01m
Waning Gibbous, 55% of the Moon is Illuminated
Jan 23
Waning Gibbous
Jan 23
Last Quarter
Jan 30
New
Feb 6
First Quarter
Feb 14
Full

Hourly Weather History & Observations

Time (CST) Temp. Windchill Dew Point Humidity Pressure Visibility Wind Dir Wind Speed Gust Speed Precip Events Conditions
12:15 AM 12.2 °F -7.1 °F -5.8 °F 45% 30.47 in 10.0 mi NNE 23.0 mph 29.9 mph N/A   Mostly Cloudy
12:35 AM 12.2 °F -5.3 °F -5.8 °F 45% 30.49 in 10.0 mi NNE 18.4 mph 25.3 mph N/A   Overcast
12:55 AM 10.4 °F -9.1 °F -7.6 °F 44% 30.51 in 10.0 mi North 21.9 mph 26.5 mph N/A   Overcast
1:15 AM 10.4 °F -9.1 °F -7.6 °F 44% 30.52 in 10.0 mi North 21.9 mph 29.9 mph N/A   Mostly Cloudy
1:35 AM 10.4 °F -8.2 °F -9.4 °F 41% 30.54 in 10.0 mi North 19.6 mph - N/A   Partly Cloudy
1:55 AM 8.6 °F -10.5 °F -9.4 °F 44% 30.53 in 10.0 mi North 19.6 mph 26.5 mph N/A   Clear
2:15 AM 8.6 °F -11.4 °F -9.4 °F 44% 30.54 in 10.0 mi North 21.9 mph - N/A   Mostly Cloudy
2:35 AM 8.6 °F -10.0 °F -9.4 °F 44% 30.56 in 10.0 mi North 18.4 mph 27.6 mph N/A   Mostly Cloudy
2:55 AM 8.6 °F -10.0 °F -9.4 °F 44% 30.58 in 10.0 mi NNE 18.4 mph 26.5 mph N/A   Scattered Clouds
3:15 AM 8.6 °F -9.5 °F -9.4 °F 44% 30.59 in 10.0 mi North 17.3 mph 26.5 mph N/A   Mostly Cloudy
3:35 AM 6.8 °F -13.4 °F -11.2 °F 44% 30.59 in 10.0 mi NNE 20.7 mph 27.6 mph N/A   Scattered Clouds
3:55 AM 6.8 °F -12.9 °F -11.2 °F 44% 30.59 in 10.0 mi North 19.6 mph - N/A   Clear
4:15 AM 6.8 °F -12.9 °F -9.4 °F 48% 30.60 in 10.0 mi North 19.6 mph 23.0 mph N/A   Clear
4:35 AM 6.8 °F -12.4 °F -9.4 °F 48% 30.61 in 10.0 mi North 18.4 mph - N/A   Partly Cloudy
4:55 AM 6.8 °F -12.9 °F -11.2 °F 44% 30.62 in 10.0 mi North 19.6 mph 26.5 mph N/A   Mostly Cloudy
5:15 AM 6.8 °F -11.3 °F -11.2 °F 44% 30.62 in 10.0 mi North 16.1 mph 20.7 mph N/A   Partly Cloudy
5:35 AM 5.0 °F -14.2 °F -9.4 °F 52% 30.64 in 10.0 mi North 17.3 mph 20.7 mph N/A   Mostly Cloudy
5:55 AM 5.0 °F -14.7 °F -11.2 °F 47% 30.65 in 10.0 mi North 18.4 mph - N/A   Partly Cloudy
6:15 AM 5.0 °F -14.2 °F -11.2 °F 47% 30.67 in 10.0 mi North 17.3 mph 21.9 mph N/A   Scattered Clouds
6:35 AM 5.0 °F -14.7 °F -9.4 °F 52% 30.68 in 10.0 mi North 18.4 mph 23.0 mph N/A   Scattered Clouds
6:55 AM 5.0 °F -13.6 °F -11.2 °F 47% 30.70 in 10.0 mi North 16.1 mph 23.0 mph N/A   Mostly Cloudy
7:15 AM 5.0 °F -14.7 °F -9.4 °F 52% 30.71 in 10.0 mi North 18.4 mph - N/A   Mostly Cloudy
7:35 AM 5.0 °F -12.3 °F -9.4 °F 52% 30.72 in 10.0 mi North 13.8 mph 18.4 mph N/A   Partly Cloudy
7:55 AM 5.0 °F -13.6 °F -9.4 °F 52% 30.73 in 10.0 mi North 16.1 mph 19.6 mph N/A   Clear
8:15 AM 5.0 °F -13.0 °F -9.4 °F 52% 30.74 in 10.0 mi North 15.0 mph - N/A   Clear
8:35 AM 5.0 °F -14.7 °F -9.4 °F 52% 30.75 in 10.0 mi North 18.4 mph - N/A   Clear
8:55 AM 5.0 °F -15.2 °F -9.4 °F 52% 30.76 in 10.0 mi North 19.6 mph - N/A   Clear
9:15 AM 6.8 °F -11.3 °F -9.4 °F 48% 30.77 in 10.0 mi NNE 16.1 mph 24.2 mph N/A   Clear
9:35 AM 6.8 °F -11.3 °F -9.4 °F 48% 30.78 in 10.0 mi NNE 16.1 mph - N/A   Clear
9:55 AM 6.8 °F -12.4 °F -9.4 °F 48% 30.79 in 10.0 mi North 18.4 mph 25.3 mph N/A   Clear
10:15 AM 6.8 °F -11.8 °F -9.4 °F 48% 30.80 in 10.0 mi North 17.3 mph - N/A   Clear
10:35 AM 8.6 °F -8.9 °F -7.6 °F 48% 30.80 in 10.0 mi North 16.1 mph - N/A   Clear
10:55 AM 8.6 °F -9.5 °F -7.6 °F 48% 30.81 in 10.0 mi North 17.3 mph 23.0 mph N/A   Clear
11:15 AM 8.6 °F -10.5 °F -7.6 °F 48% 30.81 in 10.0 mi North 19.6 mph - N/A   Clear
11:35 AM 8.6 °F -7.0 °F -7.6 °F 48% 30.81 in 10.0 mi North 12.7 mph - N/A   Clear
11:55 AM 10.4 °F -6.0 °F -7.6 °F 44% 30.80 in 10.0 mi North 15.0 mph 21.9 mph N/A   Clear
12:15 PM 10.4 °F -4.8 °F -7.6 °F 44% 30.80 in 10.0 mi North 12.7 mph - N/A   Clear
12:35 PM 12.2 °F -1.8 °F -5.8 °F 45% 30.80 in 10.0 mi North 11.5 mph 18.4 mph N/A   Clear
12:55 PM 10.4 °F -5.4 °F -9.4 °F 41% 30.80 in 10.0 mi North 13.8 mph 17.3 mph N/A   Clear
1:15 PM 12.2 °F -1.8 °F -7.6 °F 41% 30.79 in 10.0 mi North 11.5 mph 17.3 mph N/A   Clear
1:35 PM 14.0 °F 0.5 °F -7.6 °F 38% 30.79 in 10.0 mi NNW 11.5 mph 18.4 mph N/A   Clear
1:55 PM 15.8 °F 4.2 °F -7.6 °F 35% 30.77 in 10.0 mi NNW 9.2 mph - N/A   Clear
2:15 PM 15.8 °F 4.2 °F -7.6 °F 35% 30.77 in 10.0 mi NNW 9.2 mph 17.3 mph N/A   Clear
2:35 PM 15.8 °F 4.2 °F -7.6 °F 35% 30.76 in 10.0 mi NW 9.2 mph - N/A   Clear
2:55 PM 17.6 °F 7.3 °F -7.6 °F 32% 30.76 in 10.0 mi North 8.1 mph 17.3 mph N/A   Clear
3:15 PM 17.6 °F 5.7 °F -7.6 °F 32% 30.76 in 10.0 mi North 10.4 mph 17.3 mph N/A   Clear
3:35 PM 17.6 °F 5.7 °F -7.6 °F 32% 30.76 in 10.0 mi North 10.4 mph - N/A   Clear
3:55 PM 17.6 °F 5.0 °F -7.6 °F 32% 30.76 in 10.0 mi North 11.5 mph - N/A   Clear
4:15 PM 17.6 °F 5.7 °F -7.6 °F 32% 30.75 in 10.0 mi NNW 10.4 mph - N/A   Clear
4:35 PM 17.6 °F 5.0 °F -7.6 °F 32% 30.75 in 10.0 mi NW 11.5 mph - N/A   Clear
4:55 PM 17.6 °F 5.7 °F -7.6 °F 32% 30.75 in 10.0 mi NW 10.4 mph - N/A   Clear
5:15 PM 17.6 °F 6.4 °F -9.4 °F 30% 30.75 in 10.0 mi NNW 9.2 mph - N/A   Clear
5:35 PM 15.8 °F 6.1 °F -9.4 °F 32% 30.75 in 10.0 mi NNW 6.9 mph - N/A   Clear
5:55 PM 12.2 °F 4.3 °F -9.4 °F 38% 30.75 in 10.0 mi NNW 4.6 mph - N/A   Clear
6:15 PM 12.2 °F 6.1 °F -9.4 °F 38% 30.74 in 10.0 mi NNW 3.5 mph - N/A   Clear
6:35 PM 10.4 °F - -9.4 °F 41% 30.74 in 10.0 mi Calm Calm - N/A   Clear
6:55 PM 12.2 °F - -7.6 °F 41% 30.74 in 10.0 mi Calm Calm - N/A   Clear
7:15 PM 10.4 °F - -9.4 °F 41% 30.74 in 10.0 mi Calm Calm - N/A   Clear
7:35 PM 10.4 °F 2.2 °F -9.4 °F 41% 30.73 in 10.0 mi West 4.6 mph - N/A   Clear
7:55 PM 10.4 °F - -9.4 °F 41% 30.73 in 10.0 mi Calm Calm - N/A   Clear
8:15 PM 10.4 °F - -7.6 °F 44% 30.73 in 10.0 mi Calm Calm - N/A   Clear
8:35 PM 8.6 °F - -11.2 °F 40% 30.72 in 10.0 mi Calm Calm - N/A   Clear
8:55 PM 10.4 °F 0.8 °F -7.6 °F 44% 30.72 in 10.0 mi SW 5.8 mph - N/A   Clear
9:15 PM 6.8 °F -2.0 °F -9.4 °F 48% 30.71 in 10.0 mi SSW 4.6 mph - N/A   Clear
9:35 PM 6.8 °F -3.5 °F -9.4 °F 48% 30.71 in 10.0 mi SW 5.8 mph - N/A   Clear
9:55 PM 8.6 °F -2.6 °F -5.8 °F 52% 30.71 in 10.0 mi SW 6.9 mph - N/A   Clear
10:15 PM 8.6 °F -2.6 °F -7.6 °F 48% 30.70 in 10.0 mi SW 6.9 mph - N/A   Clear
10:35 PM 8.6 °F -2.6 °F -7.6 °F 48% 30.70 in 10.0 mi SW 6.9 mph - N/A   Clear
10:55 PM 8.6 °F -2.6 °F -7.6 °F 48% 30.69 in 10.0 mi SW 6.9 mph - N/A   Clear
11:15 PM 8.6 °F -3.7 °F -7.6 °F 48% 30.68 in 10.0 mi SSW 8.1 mph - N/A   Clear
11:35 PM 8.6 °F -4.7 °F -7.6 °F 48% 30.68 in 10.0 mi SSW 9.2 mph - N/A   Clear
11:55 PM 8.6 °F -4.7 °F -7.6 °F 48% 30.66 in 10.0 mi SW 9.2 mph - N/A   Clear